| Date | Temp | Humidity | Rainfall | Dew Point | Wind Direction | Wind Speed | Wind Pressure | Condition | Visibility |
|---|---|---|---|---|---|---|---|---|---|
| 2025-05-28 10:02:07 | 30 | 68 | 0.0 | 24 | 170 | 13.3 | 1009 | Partly Cloudy (Day) | 20 KM |
| 2025-05-28 09:01:52 | 29 | 79 | 0.0 | 25 | 150 | 3.8 | 1009 | Partly Cloudy (Day) | 20 KM |
| 2025-05-28 07:57:34 | 27 | 88 | 0 | 25 | 190 | 5.7 | 1009 | Partly Cloudy (Day) | 20 KM |
| 2025-05-28 07:02:12 | 26 | 94 | 0 | 25 | 170 | 3.8 | 1009 | Partly Cloudy (Day) | 15 KM |
| 2025-05-28 05:59:18 | 26 | 94 | 0 | 25 | 160 | 5.7 | 1009 | Lightning | 10 KM |
| 2025-05-28 04:59:07 | 25 | 96 | 0 | 25 | 130 | 1.9 | 1008 | Lightning | 10 KM |
| 2025-05-28 03:59:23 | 26 | 95 | 0 | 25 | 150 | 3.8 | 1008 | Partly Cloudy (Night) | 10 KM |
| 2025-05-28 03:01:13 | 26 | 93 | 0 | 24 | 160 | 5.7 | 1009 | Rain | 10 KM |
| 2025-05-28 01:59:43 | 25 | 93 | 24 | 150 | 5.7 | 1009 | Rain | 10 KM | |
| 2025-05-28 00:59:17 | 25 | 96 | 25 | 140 | 5.7 | 1010 | Thundershowers | 10 KM | |
| 2025-05-27 23:57:43 | 25 | 96 | 25 | 150 | 3.8 | 1010 | Thundershowers | 10 KM | |
| 2025-05-27 22:58:28 | 26 | 96 | 25 | 110 | 3.8 | 1011 | Thundershowers | 10 KM | |
| 2025-05-27 21:59:38 | 25 | 97 | 25 | 090 | 5.7 | 1011 | Thundershowers | 10 KM | |
| 2025-05-27 21:01:13 | 27 | 93 | 0.00 | 25 | 140 | 11.4 | 1010 | Thundershowers | 9KM |
| 2025-05-27 20:03:13 | 30 | 82 | 0.00 | 26 | 220 | 11.4 | 1008 | Night Thunderstorm | 10KM |
| 2025-05-27 19:03:12 | 30 | 78 | 0.00 | 26 | 250 | 11.4 | 1008 | Thundershowers | 10KM |
| 2025-05-27 18:00:17 | 31 | 73 | 0.00 | 26 | 270 | 17.1 | 1007 | Distant showers | 10KM |
| 2025-05-27 17:02:25 | 32 | 69 | 0.0 | 26 | 280 | 19.0 | 1006 | Shower Day | 10 km |
| 2025-05-27 16:02:05 | 32 | 72 | 0.0 | 26 | 290 | 26.6 | 1006 | Distant showers | 10 km |
| 2025-05-27 15:02:22 | 33 | 67 | 0.0 | 26 | 280 | 20.9 | 1006 | Partly Cloudy (Day) | 20 km |
| 2025-05-27 13:59:43 | 34 | 52 | 0.0 | 23 | 220 | 11.4 | 1007 | Partly Cloudy (Day) | 20 km |
| 2025-05-27 12:58:32 | 34 | 54 | 0.0 | 23 | 220 | 7.0 | 1008 | Partly Cloudy (Day) | 20 KM |
| 2025-05-27 11:58:02 | 33 | 57 | 0.0 | 24 | 180 | 6.0 | 1009 | Partly Cloudy (Day) | 20 KM |
| 2025-05-27 10:59:58 | 32 | 61 | 0.0 | 24 | 200 | 8.0 | 1010 | Partly Cloudy (Day) | 20 km |
| 2025-05-27 09:59:41 | 31 | 70 | 25 | 180 | 11.4 | 1010 | Partly Cloudy (Day) | 20 KM |